FW2330 Weather Reports


Display with metric or nautical units.
time (UTC)temp
F
wind
direction
speed
MPH
gust
MPH
rain 1hr
in
rain 24hr
in
rain mn
in
humidity
%
barometer
mb
20260505060054 89 209 2.0 9.0 0.00 0.00 0.00 60 1007.1
20260505054556 89 143 3.0 10.0 0.00 0.00 0.00 60 1007.3
20260505053101 91 211 0.0 8.0 0.00 0.00 0.00 59 1007.5
20260505051550 91 97 1.0 9.0 0.00 0.00 0.00 59 1007.7
20260505041519 91 157 3.0 8.0 0.00 0.00 0.00 56 1008.5
20260505040032 92 142 2.0 8.0 0.00 0.00 0.00 55 1008.7
20260505034516 91 133 2.0 6.0 0.00 0.00 0.00 55 1008.8
20260505033015 91 92 1.0 8.0 0.00 0.00 0.00 57 1009.2
20260505031512 90 124 4.0 11.0 0.00 0.00 0.00 56 1009.5
20260505030023 90 138 1.0 8.0 0.00 0.00 0.00 58 1009.6
20260505024512 90 139 1.0 9.0 0.00 0.00 0.00 58 1009.6
20260505023009 90 144 0.0 7.0 0.00 0.00 0.00 58 1009.8
20260505021509 89 174 1.0 7.0 0.00 0.00 0.00 59 1010.0
20260505020008 88 232 0.0 4.0 0.00 0.00 0.00 62 1010.2
20260505014507 88 204 0.0 4.0 0.00 0.00 0.00 63 1010.3
20260505013006 89 219 1.0 7.0 0.00 0.00 0.00 61 1010.4
20260505011509 89 355 0.0 5.0 0.00 0.00 0.00 60 1010.3
20260505010003 88 82 0.0 4.0 0.00 0.00 0.00 61 1010.2
20260505004600 88 88 2.0 6.0 0.00 0.00 0.00 61 1010.4
20260505003104 87 66 0.0 4.0 0.00 0.00 0.00 63 1010.4
20260505001553 86 110 0.0 5.0 0.00 0.00 0.00 65 1010.2
20260505000100 86 49 1.0 5.0 0.00 0.00 0.00 66 1010.4
20260504234547 84 68 0.0 5.0 0.00 0.00 0.00 68 1010.4
20260504233045 83 68 0.0 4.0 0.00 0.00 0.00 70 1010.4
20260504231543 83 33 0.0 2.0 0.00 0.00 0.00 70 1010.4
20260504230042 83 51 0.0 2.0 0.00 0.00 0.00 70 1010.2
20260504224538 82 26 0.0 1.0 0.00 0.00 0.00 73 1009.8
20260504223036 81 26 0.0 0.0 0.00 0.00 0.00 75 1009.6
20260504221536 79 26 0.0 1.0 0.00 0.00 0.00 77 1009.3
20260504220032 78 15 0.0 0.0 0.00 0.00 0.00 77 1009.2
20260504214535 78 15 0.0 0.0 0.00 0.00 0.00 78 1009.3
20260504213031 77 15 0.0 0.0 0.00 0.00 0.00 78 1009.3
20260504211530 77 15 0.0 0.0 0.00 0.00 0.00 78 1009.0
20260504210030 77 15 0.0 0.0 0.00 0.00 0.00 78 1008.9
20260504204529 77 15 0.0 0.0 0.00 0.00 0.00 78 1008.9
20260504203032 77 15 0.0 0.0 0.00 0.00 0.00 78 1008.8
20260504201527 77 15 0.0 0.0 0.00 0.00 0.00 78 1008.7
20260504200037 77 15 0.0 0.0 0.00 0.00 0.00 78 1008.7
20260504194525 78 15 0.0 0.0 0.00 0.00 0.00 78 1008.7
20260504193025 78 15 0.0 0.0 0.00 0.00 0.00 78 1008.8
20260504191536 78 15 0.0 0.0 0.00 0.00 0.00 77 1008.9
20260504190022 78 15 0.0 0.0 0.00 0.00 0.00 77 1008.9
20260504184521 78 15 0.0 0.0 0.00 0.00 0.00 76 1008.9
20260504183035 78 15 0.0 0.0 0.00 0.00 0.00 76 1009.0
20260504181523 79 15 0.0 0.0 0.00 0.00 0.00 76 1009.0
20260504180020 79 15 0.0 0.0 0.00 0.00 0.00 75 1009.1
20260504174518 79 15 0.0 0.0 0.00 0.00 0.00 75 1009.3
20260504173012 79 15 0.0 0.0 0.00 0.00 0.00 74 1009.4
20260504171511 79 15 0.0 0.0 0.00 0.00 0.00 75 1009.8
20260504081546 84 15 0.0 10.0 0.00 0.00 0.00 70 1009.3